Location: Amarillo Post Office Jordan Station
(35.1907°N, 101.9342°W)
Time: 12:59:25
(UTC+00:00)

Cosmos 2150 Rocket - Pass Details

Date: 24 January 2021
Orbit: 748 x 808 km, 74.0° (Epoch: 03 March)

Event Time Altitude Azimuth Distance (km) Brightness Sun altitude
Rises 12:55:26 0° 342° (NNW) 3,278 6.9 -11.7°
Reaches altitude 10° 12:57:49 10° 343° (NNW) 2,355 6.2 -11.3°
Maximum altitude 13:03:12 88° 74° (ENE) 802 4.1 -10.2°
Drops below altitude 10° 13:08:37 10° 163° (SSE) 2,372 7.0 -9.1°
Sets 13:11:01 0° 164° (SSE) 3,304 7.8 -8.7°
